Wind_Speed
52 52 54 56 60 59 56 57 60 66 72 71 71 81 81 79 79 78 82 84 84 83 82 79 78 77 74 73 70 66 63 58
60 58 56 58 61 61 61 65 74 76 70 76 81 81 81 81 81 82 83 82 84 84 82 78 76 72 68 67 64 64 60 55
69 70 72 74 77 71 70 74 75 76 80 81 79 79 79 84 84 83 82 79 80 81 81 78 73 67 63 61 62 62 57 52
83 82 78 74 69 69 73 73 77 77 74 76 79 81 81 80 77 79 79 76 77 78 79 75 69 63 59 60 62 56 54 57
75 75 69 66 68 70 73 74 76 74 75 78 77 78 80 80 82 83 83 77 72 76 74 66 64 63 64 59 57 57 59 60
71 68 69 69 71 73 77 78 76 74 74 75 75 80 84 85 86 86 80 73 71 70 62 58 58 63 60 58 58 61 63 64
77 78 77 73 71 74 75 74 73 72 75 80 84 87 91 92 91 84 75 73 67 58 54 53 56 56 55 57 63 62 63 59
81 81 74 72 72 72 72 74 74 79 83 88 91 92 90 87 80 74 71 68 59 53 49 46 50 49 55 61 60 63 59 52
80 76 73 73 73 75 75 76 82 86 88 90 89 83 83 76 73 71 67 58 54 46 45 46 46 50 56 57 61 58 55 51
77 76 75 75 75 75 80 85 88 91 90 81 76 76 72 70 72 69 59 55 49 44 38 34 48 54 54 58 55 55 53 49
75 75 76 77 79 81 84 88 81 80 74 70 67 69 68 68 63 57 52 47 42 40 37 43 50 51 54 50 51 51 49 49
80 79 77 79 82 85 81 75 67 65 64 63 64 65 64 55 53 51 45 38 29 35 43 46 49 51 46 48 48 45 45 45
82 85 78 86 81 68 62 57 58 60 64 63 61 54 48 49 48 42 36 25 31 40 43 48 48 44 44 45 42 39 38 37
75 74 73 67 62 57 58 58 59 59 61 58 48 47 44 40 36 30 26 28 36 41 45 45 41 41 41 38 35 35 34 32
68 63 61 59 59 57 58 57 57 57 50 45 44 40 35 30 30 28 30 36 39 41 39 36 36 38 34 31 31 29 26 27
62 61 60 55 52 53 52 51 48 45 41 39 35 30 28 27 29 32 33 36 37 33 29 30 32 32 27 29 27 25 22 25
57 53 46 45 47 47 43 40 38 34 31 28 27 28 27 30 31 32 34 34 29 28 23 28 30 26 27 28 31 23 18 20
41 42 41 39 40 36 33 32 25 25 26 28 29 30 31 31 32 34 32 27 27 20 21 25 27 21 24 25 22 13 13 16
38 35 32 34 31 31 28 25 20 23 25 28 31 32 31 32 34 30 26 25 22 18 21 24 23 18 23 21 15 9 11 9
29 29 28 28 27 25 21 18 20 21 25 30 32 32 33 34 29 27 24 21 16 17 21 24 19 17 18 16 9 8 7 7
Wind_Direction
266 272 275 277 276 277 275 275 281 286 286 288 292 296 297 297 298 300 303 305 307 306 306 307 306 307 307 304 303 303 303 302
270 270 273 277 276 277 279 279 281 285 284 288 292 294 297 299 303 303 305 306 307 305 306 306 306 306 305 302 302 301 301 301
274 275 280 280 283 285 279 280 282 285 288 292 293 295 298 300 303 303 304 306 306 306 305 309 308 306 302 300 300 300 301 302
272 278 279 282 282 278 279 281 285 288 292 292 295 297 298 301 304 304 306 307 305 305 308 308 306 304 300 299 300 301 304 309
275 277 280 281 278 278 280 284 288 291 293 295 297 297 298 301 304 306 306 307 306 307 306 304 305 298 299 303 303 305 308 308
276 277 280 280 279 281 284 288 291 292 295 296 297 298 300 303 305 305 305 305 306 306 304 302 298 298 306 301 301 307 307 306
275 277 278 279 280 282 286 290 291 294 295 295 297 298 299 301 302 302 303 304 307 302 299 294 292 300 296 294 300 303 305 304
271 274 277 278 280 283 287 290 292 294 295 297 297 298 299 299 300 300 302 307 304 295 291 291 289 289 292 296 300 305 305 311
272 275 277 278 282 285 289 289 290 294 295 296 296 296 296 297 299 302 306 303 296 291 287 289 283 287 297 303 304 305 309 309
273 276 279 281 283 284 288 292 292 292 293 291 294 293 295 298 299 303 301 296 294 290 289 276 286 295 301 304 306 308 309 307
273 277 281 283 283 286 290 291 291 290 289 292 293 293 295 297 303 298 295 295 291 293 283 285 292 301 305 305 307 308 307 309
273 277 281 280 283 287 288 288 288 289 290 290 291 292 297 302 294 292 293 295 297 280 288 296 302 303 305 308 308 308 310 311
273 276 273 276 281 282 285 289 288 288 289 291 294 301 299 292 287 290 290 286 280 285 293 296 300 305 309 309 308 310 305 310
271 269 274 276 277 280 284 286 287 287 287 294 303 299 291 286 287 288 286 279 276 288 294 298 304 311 310 307 307 301 306 312
267 270 271 273 277 281 282 284 283 286 294 303 298 289 286 285 287 291 286 287 290 296 301 304 311 309 307 304 301 311 312 312
265 266 269 274 278 277 281 279 284 292 298 297 289 285 284 293 293 294 292 293 299 301 301 306 308 307 299 303 308 312 307 313
261 264 269 270 273 273 274 281 289 290 292 288 287 289 296 299 296 296 300 299 298 296 299 310 310 302 293 315 310 301 300 321
255 256 259 263 263 269 276 283 276 283 287 292 295 295 298 298 299 301 299 298 294 292 301 314 315 297 307 320 318 308 311 328
245 248 250 256 262 272 274 271 276 287 292 300 300 302 299 301 302 301 299 296 289 295 300 310 319 306 316 320 338 338 325 346
236 243 248 253 263 262 270 269 278 291 295 301 302 302 303 305 301 300 296 291 283 289 306 316 316 309 321 343 30 5 11 29
Height
10851 10850 10851 10852 10850 10849 10849 10848 10847 10843 10840 10835 10830 10823 10822 10818 10814 10809 10805 10796 10787 10777 10773 10768 10760 10754 10747 10739 10733 10729 10727 10724
10842 10842 10841 10842 10839 10841 10843 10841 10837 10833 10830 10825 10821 10812 10811 10804 10799 10796 10792 10784 10770 10761 10756 10753 10746 10740 10731 10725 10721 10717 10714 10711
10828 10832 10831 10830 10832 10832 10831 10828 10824 10821 10819 10813 10805 10801 10797 10792 10788 10782 10778 10773 10758 10747 10741 10735 10729 10725 10717 10713 10709 10704 10701 10699
10819 10818 10817 10820 10821 10818 10816 10816 10813 10811 10806 10799 10794 10788 10783 10780 10776 10768 10764 10759 10748 10736 10726 10721 10714 10710 10704 10700 10697 10692 10688 10684
10806 10805 10807 10807 10804 10804 10804 10804 10802 10800 10794 10786 10781 10775 10769 10767 10761 10755 10747 10744 10736 10725 10717 10710 10702 10695 10693 10689 10685 10680 10675 10670
10792 10792 10794 10789 10792 10792 10791 10788 10788 10785 10781 10773 10768 10762 10757 10752 10746 10739 10734 10731 10726 10716 10706 10700 10692 10684 10680 10678 10675 10670 10664 10657
10780 10776 10779 10781 10782 10781 10781 10779 10776 10772 10767 10761 10756 10750 10743 10738 10732 10726 10721 10717 10714 10705 10697 10690 10683 10677 10674 10670 10666 10661 10653 10645
10762 10764 10768 10770 10771 10770 10769 10766 10763 10759 10754 10748 10741 10736 10729 10723 10717 10713 10709 10705 10700 10693 10687 10682 10675 10672 10667 10664 10656 10649 10640 10632
10750 10752 10755 10757 10760 10758 10756 10755 10751 10747 10741 10734 10727 10722 10715 10709 10702 10701 10697 10694 10689 10684 10679 10675 10669 10663 10659 10652 10645 10637 10628 10622
10737 10740 10742 10744 10748 10748 10745 10741 10739 10733 10726 10719 10716 10707 10702 10696 10691 10689 10686 10681 10679 10676 10676 10668 10662 10655 10649 10641 10633 10626 10618 10613
10724 10727 10731 10734 10735 10733 10733 10727 10724 10718 10711 10706 10701 10694 10691 10687 10683 10677 10674 10673 10669 10666 10661 10659 10654 10646 10639 10631 10624 10617 10610 10604
10715 10719 10720 10719 10721 10723 10720 10716 10708 10701 10696 10694 10691 10686 10682 10677 10671 10667 10666 10665 10662 10658 10653 10647 10641 10636 10630 10623 10615 10609 10603 10597
10707 10707 10704 10706 10710 10710 10707 10702 10696 10691 10687 10682 10681 10677 10673 10666 10661 10659 10659 10657 10651 10647 10644 10640 10635 10628 10621 10614 10608 10603 10598 10592
10690 10690 10693 10695 10697 10698 10695 10690 10685 10681 10677 10675 10671 10666 10662 10657 10653 10653 10651 10647 10645 10641 10637 10632 10626 10619 10614 10609 10605 10600 10593 10587
10677 10682 10681 10684 10685 10685 10682 10679 10674 10671 10668 10666 10662 10657 10654 10652 10648 10648 10642 10639 10637 10632 10627 10622 10619 10615 10609 10605 10601 10594 10589 10584
10668 10668 10670 10673 10673 10671 10671 10667 10665 10662 10661 10658 10654 10650 10648 10647 10644 10639 10636 10632 10627 10623 10620 10618 10616 10610 10605 10601 10595 10591 10586 10582
10654 10656 10660 10662 10661 10660 10659 10658 10657 10656 10654 10651 10648 10646 10644 10639 10636 10633 10629 10624 10621 10619 10617 10615 10610 10604 10600 10597 10591 10587 10584 10581
10644 10646 10649 10652 10650 10650 10650 10651 10651 10650 10648 10646 10643 10640 10636 10632 10629 10624 10620 10618 10615 10614 10612 10609 10604 10600 10596 10592 10587 10585 10584 10582
10634 10639 10642 10643 10642 10643 10645 10645 10646 10644 10642 10638 10635 10632 10629 10626 10622 10617 10614 10612 10610 10608 10608 10605 10599 10596 10594 10590 10586 10585 10584 10582
10628 10632 10634 10635 10636 10638 10640 10640 10639 10638 10635 10631 10627 10625 10621 10617 10614 10611 10608 10606 10605 10605 10603 10599 10597 10595 10593 10589 10587 10586 10585 10583